User: anonymous   Login
Location: Luz Observatory
(34.5000°N, 117.2833°W)
Time: 13:38:47
(UTC-07:00)
Language:

Cosmos 1452 Rocket - Orbit

View from above orbital plane
View from above orbital plane
View from above satellite
View from above satellite

Ground track
Ground track

The orbit data is extracted from the following two-line orbital elements,

1 13992U 83031B   16126.96844251 +.00000073 +00000-0 +34144-4 0  9994
2 13992 074.0551 033.9894 0004238 124.8684 320.3642 14.36030624730069
Epoch (UTC): 05 May 2016 23:14:33
Eccentricity: 0.0004238
inclination: 74.0551°
perigee height: 768 km
apogee height: 774 km
right ascension of ascending node: 33.9894°
argument of perigee: 124.8684°
revolutions per day: 14.36030624
mean anomaly at epoch: 320.3642°
orbit number at epoch: 73006

The dashed part of the orbit path shows where the satellite is in the earth's shadow,  

DLR